軌道要素
Epoch 2013 Nov. 4.0 TT = JDT 2456600.5
T 2013 Dec. 12.45639 TT MPC
q 1.6078359 (2000.0) P Q
n 0.09143406 Peri. 49.02198 +0.83296305 -0.54644328
a 4.8797480 Node 343.49102 +0.36927207 +0.66609279
e 0.6705084 Incl. 17.83195 +0.41208093 +0.50766143
P 10.8
From 2587 observations 1992 Aug. 29-2014 Feb. 9, mean residual 0".6.
Nongravitational parameters A1 = +3.77, A2 = +0.1661.
|